Temp
16 15 15 15 15 15 15 15 15 15 15 15 15 15 15 15 15 15 15 15 15 15 15 15 15 16 16 16 16 16 16 16 15 15 15 15 14 14 13 13 13 13 12 12 12 12 12 12 11 11 11 11 11 11 11 11 11 11 11 11 11 11 11 11 11 11 11 11 11
15 15 15 15 15 15 15 15 15 15 15 15 15 15 15 15 15 15 15 15 15 15 15 15 15 15 16 16 16 16 15 15 15 15 14 14 13 13 12 12 12 12 11 11 11 11 11 11 11 11 11 11 10 10 10 10 10 10 10 10 10 10 10 10 10 10 11 11 11
15 15 15 15 15 15 15 15 15 15 15 15 15 15 15 15 15 15 15 15 15 15 15 15 15 16 16 16 16 15 15 14 14 14 13 13 13 12 12 12 12 12 11 11 11 11 11 11 11 11 11 11 10 10 10 10 9 9 9 9 9 9 9 9 9 9 10 10 10
15 15 15 15 15 15 15 15 15 15 15 15 15 15 15 15 15 15 15 15 15 15 15 15 16 16 16 15 15 15 14 14 13 13 13 13 13 13 12 12 12 11 11 11 11 11 11 11 11 11 11 11 11 10 10 10 9 9 9 9 9 9 9 9 9 9 9 9 10
15 15 15 15 15 15 15 15 15 15 15 15 15 15 15 15 15 15 15 15 15 15 15 16 16 16 15 15 14 14 14 13 13 13 13 13 13 13 12 12 12 11 11 11 11 11 11 10 10 10 10 10 10 10 10 10 9 9 9 9 9 8 9 9 9 9 9 9 9
15 15 15 15 15 15 15 15 15 15 15 15 15 15 15 15 15 15 15 15 15 16 16 16 16 15 15 14 14 13 13 13 13 13 13 13 13 13 12 12 12 11 11 11 10 10 10 10 10 10 10 10 10 10 9 9 9 9 8 8 8 8 8 8 8 8 8 8 9
15 15 15 15 15 15 15 15 15 15 15 15 15 15 15 15 15 15 15 15 16 16 16 15 15 15 14 14 14 14 14 13 13 13 13 13 13 12 12 11 11 11 11 10 10 10 10 10 9 9 9 9 9 9 9 8 8 8 8 7 7 7 7 7 7 8 8 8 8
15 15 15 15 15 15 15 15 15 15 15 15 15 15 15 15 15 15 15 15 15 15 15 15 15 14 14 14 14 14 14 14 13 13 13 12 12 12 11 11 11 11 10 10 10 10 10 9 9 9 9 9 9 8 8 8 8 7 7 7 7 7 7 7 7 7 7 7 7
15 15 15 15 15 15 15 15 15 15 15 15 15 15 15 15 15 15 15 15 15 15 15 15 14 14 14 14 14 14 13 13 13 12 12 12 11 11 11 11 10 10 10 10 10 9 9 9 9 9 9 9 9 9 8 8 8 8 7 7 7 7 7 7 7 7 7 7 7
15 15 15 15 15 15 15 15 15 15 15 15 15 15 15 15 15 15 15 15 15 14 14 14 14 14 14 14 14 13 13 13 12 12 12 11 11 11 11 10 10 10 10 10 9 9 9 9 9 9 9 9 9 9 8 8 8 8 7 7 7 7 7 7 7 7 7 7 7
15 15 15 15 15 15 15 15 15 15 15 15 15 15 15 15 15 15 15 14 14 14 14 14 14 14 14 13 13 13 12 12 12 12 11 11 11 11 11 10 10 10 10 10 10 9 9 9 9 9 9 9 9 8 8 8 8 7 7 7 7 7 7 7 7 7 7 7 7
15 15 15 15 15 15 15 15 15 15 15 15 15 15 15 15 15 14 14 14 14 14 14 14 14 13 13 13 13 12 12 12 11 11 11 11 11 11 11 10 10 10 10 10 10 9 9 9 9 9 9 9 9 8 8 8 7 7 7 7 7 7 7 7 7 7 7 7 7
15 15 15 15 15 15 15 15 15 15 15 15 15 15 15 14 14 14 14 14 14 14 14 13 13 13 13 12 12 12 12 11 11 11 11 11 11 11 11 10 10 10 10 10 9 9 9 9 9 9 9 9 9 8 8 8 8 7 7 7 7 7 7 7 7 7 7 7 7
15 15 15 15 15 15 15 15 15 15 15 14 14 14 14 14 14 14 13 13 13 13 13 13 13 13 12 12 12 12 11 11 11 11 11 11 11 11 10 10 10 10 10 9 9 9 9 9 9 9 9 9 9 8 8 8 8 8 7 7 7 7 7 7 7 7 6 6 7
15 15 15 15 15 15 15 15 14 14 14 14 14 14 14 14 13 13 13 13 13 13 13 13 12 12 12 12 12 12 11 11 11 11 11 11 11 10 10 10 10 10 9 9 9 9 9 9 9 9 9 9 8 8 8 8 8 8 7 7 7 7 7 7 7 6 6 6 6
15 15 15 15 14 14 14 14 14 14 14 14 14 13 13 13 13 13 13 13 13 12 12 12 12 12 12 12 12 11 11 11 11 11 11 11 10 10 10 10 10 9 9 9 9 9 9 9 8 8 8 8 8 8 8 8 8 7 7 7 7 7 7 7 6 6 6 6 6
14 14 14 14 14 14 14 14 14 14 13 13 13 13 13 13 13 13 12 12 12 12 12 12 12 12 12 12 11 11 11 11 11 11 10 10 10 10 10 10 9 9 9 9 9 9 9 8 8 8 8 8 8 8 8 7 7 7 7 7 7 6 6 6 6 6 6 6 6
14 14 14 14 14 14 14 14 13 13 13 13 13 13 13 12 12 12 12 12 12 12 12 12 11 11 11 11 11 11 11 11 11 10 10 10 10 10 10 9 9 9 9 9 9 8 8 8 8 8 8 7 7 7 7 7 7 7 7 6 6 6 6 6 6 6 6 6 6
14 14 14 14 13 13 13 13 13 13 13 13 13 12 12 12 12 12 12 12 11 11 11 11 11 11 11 11 11 11 10 10 10 10 10 10 10 9 9 9 9 9 8 8 8 8 8 8 7 7 7 7 7 7 7 7 6 6 6 6 6 6 6 6 6 6 6 6 5
13 13 13 13 13 13 13 13 13 13 13 13 12 12 12 12 12 12 12 11 11 11 11 11 11 11 11 11 10 10 10 10 10 10 10 9 9 9 9 8 8 8 8 8 8 8 8 7 7 7 7 7 7 7 6 6 6 6 6 6 6 6 6 6 5 5 5 5 5
13 13 13 13 13 13 13 13 13 13 12 12 12 12 12 12 12 11 11 11 11 11 11 11 11 11 10 10 10 10 10 10 10 9 9 9 9 8 8 8 8 8 8 8 8 7 7 7 7 7 7 7 6 6 6 6 6 6 6 6 5 5 5 5 5 5 5 5 5
13 12 12 12 12 12 12 12 12 12 12 12 12 12 12 11 11 11 11 11 11 11 11 11 10 10 10 10 10 10 9 9 9 9 8 8 8 8 8 8 8 8 8 7 7 7 7 7 7 6 6 6 6 6 6 6 5 5 5 5 5 5 5 5 5 5 4 4 4
12 12 12 12 12 12 12 12 12 12 12 12 11 11 11 11 11 11 11 11 11 11 10 10 10 10 10 10 9 9 9 9 8 8 8 8 8 7 7 7 7 7 7 7 7 7 7 6 6 6 6 6 6 5 5 5 5 5 5 5 5 5 5 5 4 4 4 4 4
12 12 12 12 12 12 12 12 11 11 11 11 11 11 11 11 11 10 10 10 10 10 10 10 10 9 9 9 9 8 8 8 8 8 8 7 7 7 7 7 7 7 7 7 7 6 6 6 6 6 5 5 5 5 5 5 5 5 5 5 5 4 4 4 4 4 4 4 4
12 12 12 12 12 11 11 11 11 11 11 11 10 10 10 10 10 10 10 10 10 10 9 9 9 9 9 8 8 8 8 8 8 7 7 7 7 7 7 7 7 7 7 6 6 5 5 5 5 5 5 5 5 5 5 5 5 4 4 4 4 4 4 4 4 4 3 3 3
12 12 11 11 11 11 11 11 11 10 10 10 10 10 10 10 10 10 10 9 9 9 9 9 8 8 8 8 8 8 8 7 7 7 7 7 7 7 7 7 7 7 6 6 5 5 5 5 5 5 5 5 5 5 5 4 4 4 4 4 4 4 4 4 3 3 3 3 3
11 11 11 11 11 11 10 10 10 10 10 10 10 10 9 9 9 9 9 9 9 8 8 8 8 8 8 8 8 8 7 7 7 7 7 7 7 7 7 7 7 6 6 5 5 5 5 5 5 5 5 5 5 4 4 4 4 4 4 3 3 3 3 3 3 3 3 3 3
11 11 11 10 10 10 10 10 10 10 9 9 9 9 9 9 9 9 8 8 8 8 8 8 7 7 8 8 7 7 7 7 7 7 7 7 7 7 7 7 6 6 5 5 5 5 5 5 5 4 4 4 4 4 4 4 4 3 3 3 3 3 3 2 2 2 2 2 2
10 10 10 10 10 10 9 9 9 9 9 9 9 9 9 8 8 8 8 8 8 8 7 7 7 7 7 7 7 7 7 7 7 7 7 7 7 7 7 6 6 6 5 5 5 5 5 4 4 4 4 4 4 4 3 3 3 3 3 2 2 2 2 2 2 2 2 2 2
10 10 10 10 9 9 9 9 9 9 8 8 8 8 8 8 8 8 8 8 7 7 7 7 7 7 7 7 7 7 7 7 7 7 7 7 7 6 6 6 6 5 5 4 4 4 4 4 4 3 3 3 3 3 3 3 2 2 2 2 2 2 1 1 1 1 1 1 1
10 10 9 9 9 9 9 8 8 8 8 8 8 8 8 8 8 7 7 7 7 7 7 7 7 7 7 7 7 7 7 7 7 7 7 6 6 6 5 5 5 5 4 4 4 4 3 3 3 3 2 2 2 2 2 2 2 2 1 1 1 1 1 1 1 1 1 1 1
9 9 9 9 9 8 8 8 8 8 8 8 8 8 8 7 7 7 7 7 7 7 7 7 7 7 7 7 7 7 6 6 6 6 6 5 5 5 5 5 5 4 3 3 3 3 3 3 2 2 2 2 2 2 1 1 1 1 1 1 1 1 0 0 0 0 0 0 0
9 9 9 8 8 8 8 7 8 8 8 8 7 7 7 7 7 7 7 7 7 7 7 7 7 7 7 6 6 6 6 6 5 5 5 5 5 5 5 5 4 3 3 3 3 3 2 2 2 2 1 1 1 1 1 1 1 0 0 0 0 0 0 0 0 0 -0 -0 -0
9 8 8 8 8 7 7 7 7 7 7 7 7 7 7 7 7 7 7 7 7 7 7 7 7 6 6 6 6 6 5 5 5 4 4 4 4 4 4 4 3 3 2 2 2 2 2 2 2 1 1 1 1 0 0 0 0 0 -0 -0 -0 -0 -0 -0 -0 -0 -0 -0 -0
8 8 8 7 7 7 7 7 7 7 7 7 7 7 7 7 7 7 6 6 7 7 7 6 6 6 6 5 5 5 5 4 4 4 4 4 4 4 4 3 3 2 2 2 2 2 2 2 1 1 1 0 0 -0 -0 -0 -0 -0 -0 -0 -0 -0 -0 -0 -0 -0 -0 -0 -1
8 8 7 7 7 7 7 7 7 7 7 7 7 7 7 6 6 6 6 6 6 7 6 6 6 6 5 5 5 5 4 4 4 3 3 3 3 3 3 2 2 2 2 1 1 1 1 1 1 1 0 0 -0 -0 -0 -0 -0 -0 -0 -0 -0 -0 -0 -0 -0 -0 -0 -0 -1
8 8 7 7 7 7 7 7 7 7 7 7 7 6 6 6 6 6 6 6 6 6 6 6 5 5 5 5 4 4 3 3 3 3 3 2 2 2 2 1 1 1 1 1 1 1 1 1 1 1 0 0 -0 -0 -0 -0 -1 -1 -1 -1 -1 -0 -0 -0 -0 -0 -0 -0 -0
7 8 8 7 7 7 7 8 8 7 7 7 6 6 6 6 6 6 5 6 6 6 6 5 5 4 4 3 3 3 3 2 2 2 2 1 1 1 1 1 1 1 1 1 0 0 0 0 1 0 0 0 -0 -0 -0 -1 -1 -1 -1 -1 -1 -1 -1 -1 -1 -1 -1 -1 -1
7 8 8 8 8 8 8 8 7 7 7 7 6 6 6 6 6 6 5 5 6 6 5 5 4 3 3 3 3 3 2 2 2 1 1 1 0 0 0 0 0 0 0 0 -0 -0 -0 0 0 0 0 0 -0 -0 -1 -1 -1 -1 -1 -1 -1 -1 -1 -1 -1 -1 -1 -1 -1
8 8 8 8 8 8 8 7 7 7 7 7 7 6 6 6 6 5 5 5 5 5 5 4 3 3 2 2 2 2 2 1 1 0 0 -0 -0 -0 -0 -0 -0 -0 -0 -1 -1 -1 -0 -0 0 0 0 -0 -0 -0 -1 -1 -1 -1 -1 -1 -1 -1 -1 -1 -1 -1 -1 -1 -1
8 8 8 8 8 8 8 7 7 7 7 7 7 6 6 5 5 5 5 5 4 4 4 3 3 2 2 2 2 1 1 0 -0 -0 -1 -1 -1 -0 -0 -0 -1 -1 -1 -1 -1 -1 -1 -0 -0 0 0 -0 -0 -0 -1 -1 -1 -1 -1 -1 -1 -2 -2 -2 -1 -1 -1 -1 -1
Height
799 800 801 802 803 804 805 806 807 808 809 809 810 811 812 813 814 814 815 815 816 816 817 817 818 818 819 819 820 820 820 820 820 820 820 820 821 821 822 822 822 822 823 823 824 824 824 825 826 826 827 827 828 828 828 828 828 829 829 830 830 830 830 830 830 829 830 830 830
798 799 800 801 802 803 804 805 806 807 808 809 809 810 811 812 813 813 814 814 815 815 816 816 817 818 818 818 819 819 819 819 819 819 819 819 820 821 822 822 821 821 822 822 822 823 823 823 824 824 825 825 825 825 826 826 826 827 828 828 828 829 829 829 829 829 829 829 829
798 799 800 801 802 803 804 804 805 806 807 808 809 809 810 811 811 812 813 813 814 814 815 816 816 816 817 817 817 817 818 818 818 818 818 819 820 820 821 820 820 820 821 821 821 822 822 822 823 823 823 823 824 824 824 824 824 825 826 825 825 826 827 827 827 828 828 828 828
797 798 799 800 801 802 802 803 804 805 806 807 808 809 809 810 811 811 812 813 813 814 814 814 815 815 815 816 816 816 816 817 817 817 817 818 819 819 819 819 819 819 819 819 819 820 821 821 822 822 822 822 821 822 822 822 823 823 823 823 823 824 824 824 825 825 826 826 826
796 797 798 799 800 801 802 803 804 804 805 806 807 808 809 809 810 811 811 812 812 813 813 813 814 814 814 814 815 815 815 815 816 816 817 817 817 817 817 817 818 818 818 818 818 818 819 819 819 820 820 820 820 820 820 821 821 821 821 821 821 821 822 822 823 823 824 824 824
795 796 797 798 799 800 801 802 803 804 805 806 806 807 808 809 809 810 810 811 811 811 812 812 812 813 813 813 814 814 814 814 815 815 815 815 815 816 816 816 817 817 817 817 818 818 818 818 819 819 819 819 819 819 819 819 819 819 819 819 819 819 819 820 820 821 821 822 822
795 796 797 798 799 800 800 801 802 803 804 805 806 806 807 808 808 809 809 809 810 810 810 811 811 811 812 812 813 813 813 813 814 814 814 814 814 815 815 816 816 816 817 817 817 818 818 818 818 818 818 819 818 818 818 818 818 818 818 818 818 818 818 819 819 819 820 820 820
794 795 796 797 798 799 800 801 802 803 803 804 804 805 806 806 807 807 808 808 809 809 809 809 810 810 810 811 811 812 812 812 812 813 813 814 814 814 815 815 816 816 816 817 817 817 817 817 817 817 817 817 817 817 817 817 817 817 817 817 817 817 817 817 818 818 819 819 819
794 795 796 797 798 799 799 800 801 802 802 803 804 804 805 805 806 806 807 807 807 808 808 809 809 809 810 810 810 811 811 812 812 812 813 813 814 814 814 815 815 815 816 816 816 816 816 816 816 816 816 816 816 816 816 816 816 816 815 815 815 815 815 816 816 817 817 817 817
793 794 795 796 797 798 799 799 800 801 801 802 803 803 804 804 805 805 805 806 806 807 808 808 809 809 809 809 810 810 811 811 811 812 812 813 813 814 814 814 814 814 815 815 815 815 815 815 816 815 815 815 815 815 815 815 814 814 814 814 814 814 814 814 815 815 816 816 816
792 793 794 795 796 797 798 799 799 800 801 801 802 803 803 804 804 804 805 805 806 806 807 807 808 808 809 809 809 810 810 811 811 812 812 813 813 813 814 814 814 814 814 814 814 814 815 815 815 815 814 814 814 814 814 814 814 813 813 813 814 814 813 813 814 814 814 814 814
792 793 794 795 795 796 797 798 799 799 800 800 801 802 802 803 803 804 804 805 805 806 806 807 808 808 808 809 809 809 810 810 811 811 812 812 812 813 813 813 813 813 813 813 814 814 814 814 814 814 813 813 813 813 813 813 813 813 812 812 813 813 813 812 813 813 813 814 813
792 793 793 794 795 796 797 797 798 799 799 800 800 801 802 802 803 803 804 804 805 805 806 807 807 808 808 808 809 809 809 810 810 811 811 812 812 812 812 812 812 812 812 812 813 813 813 813 813 813 812 812 812 812 812 812 812 812 812 812 812 812 812 812 812 812 812 812 812
791 792 793 794 794 795 796 797 798 798 799 799 800 801 801 802 802 803 804 804 805 805 806 806 807 807 808 808 808 809 809 809 810 810 811 811 811 811 811 811 811 811 811 811 812 812 812 812 812 812 812 812 812 812 812 812 812 811 811 811 811 811 811 811 811 811 812 812 812
791 792 793 794 794 795 796 797 797 798 799 799 800 800 801 802 802 803 804 804 804 805 805 806 806 807 807 808 808 808 809 809 809 810 810 810 810 810 810 810 810 811 811 811 811 811 811 811 811 811 811 811 811 811 811 811 811 811 811 811 811 811 810 810 811 811 811 812 812
791 792 793 794 794 795 796 796 797 798 799 799 800 800 801 801 802 803 803 804 804 805 805 806 806 807 807 808 808 808 809 809 809 809 809 809 809 809 810 810 810 810 811 811 811 811 811 811 811 811 811 811 811 811 811 811 810 810 810 810 810 810 810 810 811 811 811 812 812
791 792 793 794 794 795 796 796 797 798 798 799 799 800 801 801 802 802 803 804 804 804 805 805 806 806 807 807 808 808 808 808 809 809 809 809 809 809 809 810 810 810 810 810 811 811 811 811 811 811 810 810 810 810 810 810 810 810 810 810 810 810 810 810 811 811 811 811 811
791 792 793 794 794 795 796 796 797 798 798 799 799 800 800 801 802 802 803 803 804 804 805 805 806 806 807 807 807 808 808 808 808 809 809 809 809 809 809 810 810 810 810 810 810 810 810 810 810 810 810 810 809 809 809 809 809 809 809 809 809 810 810 810 810 810 810 810 810
792 793 793 794 794 795 796 796 797 798 798 799 799 800 800 801 801 802 802 803 804 804 804 805 805 806 806 807 807 807 808 808 808 808 808 809 809 809 809 809 809 809 809 809 809 809 809 809 810 809 809 809 809 809 809 809 809 809 809 809 809 809 809 809 809 809 809 809 809
792 793 794 794 795 795 796 797 797 798 798 799 799 800 800 801 801 802 802 803 803 804 804 804 805 805 806 806 807 807 807 807 808 808 808 808 809 809 809 809 809 809 809 809 809 809 809 809 809 809 809 809 809 809 809 809 809 809 809 809 809 809 809 809 809 809 809 809 808
792 793 794 794 795 795 796 797 797 798 798 799 799 800 800 801 801 802 802 803 803 804 804 804 805 805 806 806 806 807 807 807 808 808 808 808 808 808 808 808 808 808 808 808 808 809 809 809 809 809 808 808 808 809 809 809 809 809 809 809 809 808 808 808 808 808 808 807 807
793 793 794 794 795 796 796 797 797 798 799 799 799 800 800 801 801 802 802 803 803 804 804 804 805 805 805 806 806 806 807 807 807 808 808 808 808 808 808 808 808 808 808 808 808 808 809 809 809 808 808 808 808 808 808 808 808 808 808 808 808 808 808 807 807 807 806 806 806
793 794 794 795 795 796 796 797 798 798 799 799 799 800 800 801 801 802 802 803 803 804 804 804 805 805 805 806 806 806 807 807 807 807 807 807 808 808 808 808 808 808 808 808 808 808 809 809 809 808 808 808 808 808 808 808 808 807 807 807 807 807 806 806 806 806 805 805 804
793 794 794 795 796 796 797 797 798 798 799 799 800 800 801 801 802 802 803 803 803 804 804 804 805 805 805 806 806 806 807 807 807 807 807 807 808 808 808 808 808 808 808 808 808 809 809 809 809 808 808 808 808 808 807 807 807 807 806 806 806 805 805 805 805 804 804 804 804
794 794 795 795 796 796 797 798 798 799 799 799 800 801 801 802 802 802 803 803 803 804 804 804 805 805 805 806 806 806 806 807 807 807 807 807 808 808 808 808 808 808 808 809 809 809 809 809 809 808 808 808 807 807 807 807 806 806 806 805 805 804 804 804 804 804 803 803 803
794 794 795 796 796 797 797 798 798 799 799 800 800 801 801 802 802 803 803 803 804 804 804 804 805 805 806 806 806 806 806 807 807 807 808 808 808 808 808 809 809 809 809 809 809 809 809 809 809 808 808 807 807 807 806 806 806 805 805 805 804 804 804 803 803 803 802 802 802
794 795 795 796 796 797 798 798 799 799 800 800 801 801 802 802 803 803 803 803 804 804 804 805 805 805 806 806 806 807 807 807 808 808 808 808 809 809 809 809 809 809 809 809 809 809 809 809 809 808 808 807 807 806 806 806 805 805 805 804 804 804 803 803 802 802 801 801 801
794 795 796 796 797 797 798 799 799 800 800 801 801 802 802 803 803 803 803 804 804 804 805 805 806 806 806 806 807 807 808 808 808 809 809 809 809 809 809 809 809 809 809 809 809 809 809 809 809 808 808 807 806 806 806 806 805 805 804 804 804 803 803 803 802 801 801 800 800
795 795 796 797 797 798 799 799 799 800 801 801 802 802 803 803 803 803 804 804 804 805 805 806 806 807 807 807 808 808 808 809 809 809 809 809 809 809 809 809 809 809 810 810 809 809 809 809 809 808 808 807 807 806 806 806 805 805 804 804 804 803 803 802 802 801 800 800 799
795 796 796 797 798 798 799 799 800 801 801 802 802 803 803 803 804 804 804 805 805 806 806 807 807 807 807 808 808 808 809 809 809 809 809 809 809 809 809 809 809 810 810 810 810 809 809 809 809 808 808 807 807 806 806 805 805 805 804 804 804 803 803 802 801 801 800 799 799
796 796 797 797 798 799 799 800 801 801 802 802 803 803 803 804 804 804 805 806 806 807 807 808 808 808 808 808 809 809 809 809 809 809 809 809 809 809 809 809 809 810 810 810 810 809 809 809 809 808 807 807 807 806 806 805 805 805 804 804 803 803 802 802 801 800 800 799 798
796 797 797 798 799 799 800 801 802 802 803 803 803 803 804 804 805 805 806 807 807 808 808 808 808 808 809 809 809 809 809 809 809 809 809 809 809 809 809 809 809 810 810 810 810 810 809 809 809 808 807 807 807 806 806 805 805 804 804 804 803 803 802 801 801 800 799 799 798
797 797 798 798 799 800 801 802 802 803 803 803 804 804 804 805 806 806 807 807 808 808 808 808 809 809 809 809 809 809 809 809 809 809 809 809 809 809 809 809 809 810 810 810 810 810 809 809 809 808 808 807 807 806 806 805 805 804 804 804 803 803 802 801 800 800 799 799 798
797 798 798 799 800 801 802 802 803 803 803 804 804 805 805 806 806 807 807 808 808 808 809 809 809 809 809 809 809 809 809 809 809 809 809 809 809 809 809 809 809 810 810 810 810 810 810 809 809 808 808 807 807 806 806 805 805 804 804 803 803 802 802 801 800 799 799 798 798
798 798 799 800 801 801 802 803 803 804 804 804 805 806 806 807 807 807 808 809 809 809 809 809 809 809 809 810 810 810 810 810 810 810 810 810 809 809 809 809 810 810 810 810 810 810 810 809 809 809 808 807 807 806 806 805 804 804 804 803 803 802 801 801 800 799 799 798 797
799 799 799 800 801 802 803 803 804 804 804 805 806 806 807 807 808 808 809 809 809 809 809 809 810 810 810 810 810 810 810 810 810 810 810 810 809 809 809 810 810 810 810 810 810 810 810 809 809 809 808 807 807 806 805 805 804 804 804 803 802 802 801 800 800 799 798 798 797
799 799 800 801 802 803 803 804 804 805 805 806 806 807 807 808 808 809 809 809 809 809 809 810 810 810 810 810 810 810 810 810 810 810 810 810 810 810 810 810 810 810 810 810 810 810 810 809 809 809 808 807 806 806 805 805 804 804 803 803 802 801 801 800 799 799 798 797 796
800 800 801 801 802 803 804 804 805 805 806 806 807 808 808 808 809 809 809 810 810 810 810 810 810 810 810 810 811 811 811 811 811 810 810 810 810 810 810 810 810 810 810 810 810 810 810 809 809 809 808 807 806 806 805 805 804 804 803 802 802 801 800 800 799 798 798 797 796
801 801 802 802 803 804 804 805 805 806 806 807 808 808 809 809 809 809 810 810 810 810 810 810 810 811 811 811 811 811 811 811 811 811 811 810 811 811 811 811 810 810 810 810 810 810 810 809 809 809 808 807 807 806 805 805 804 803 803 802 801 800 800 799 799 798 797 796 795
802 802 803 803 804 804 804 805 806 806 807 808 808 808 809 809 809 810 810 810 810 810 810 811 811 811 812 812 811 811 811 811 811 811 811 811 811 811 811 811 811 810 810 810 810 810 810 809 809 809 808 807 807 806 805 804 804 803 802 801 801 800 799 799 798 797 796 795 795
802 803 803 804 804 805 805 806 806 807 808 808 808 809 809 809 810 810 810 810 811 811 811 811 811 812 812 812 812 812 812 812 812 812 812 812 812 812 812 811 811 810 810 810 810 810 810 809 809 809 808 807 807 806 805 804 803 802 801 801 800 800 799 798 798 797 796 795 794
Wind_Speed
27 26 25 25 25 25 25 25 25 25 25 25 25 25 25 25 25 25 25 25 26 26 26 26 26 26 26 27 27 28 29 30 31 31 32 33 34 34 34 35 37 37 35 33 33 33 33 33 32 32 31 31 31 31 31 32 32 32 31 31 31 30 30 30 30 31 31 31 31
27 26 25 24 24 24 24 24 24 24 24 25 25 25 25 25 25 25 25 26 26 26 26 26 26 26 26 27 27 28 29 30 30 31 31 31 31 31 31 32 34 34 33 33 33 33 33 33 32 32 31 31 31 31 31 31 31 31 31 31 32 31 31 30 31 31 31 31 31
26 26 25 24 23 23 23 23 24 24 24 24 25 25 25 25 25 25 25 26 26 26 26 26 26 26 27 27 28 28 29 29 30 29 29 29 28 28 29 31 32 33 33 32 32 32 33 33 32 32 31 32 32 32 32 32 31 31 31 33 33 33 32 31 31 31 31 31 31
26 25 24 24 24 24 24 24 24 24 24 24 24 24 24 24 24 24 24 25 25 25 25 26 26 26 27 27 28 28 29 28 28 28 27 26 26 27 28 30 31 32 32 32 32 32 32 32 32 32 32 32 33 33 33 33 32 32 32 33 33 33 32 32 31 31 31 31 31
25 25 25 25 24 24 24 24 24 24 24 24 24 23 23 23 23 24 24 24 25 25 25 25 26 26 27 27 28 28 28 27 27 26 26 26 27 28 28 29 30 31 32 32 31 31 31 31 31 31 32 32 32 33 33 33 32 32 32 32 32 32 31 31 31 31 30 30 30
24 25 25 25 25 24 24 24 24 23 23 23 23 23 23 23 23 23 24 24 25 25 25 25 26 26 27 27 27 27 27 27 27 27 27 27 27 28 28 28 28 29 30 30 30 29 29 29 29 29 29 30 30 30 30 31 31 31 31 31 31 30 30 29 29 29 29 29 28
23 23 24 24 24 24 24 24 23 23 22 22 22 22 23 23 24 24 24 25 25 25 25 26 26 27 27 27 27 26 27 27 27 27 27 27 27 27 26 26 27 27 27 27 27 27 26 26 26 26 27 27 28 29 29 29 29 29 29 29 29 29 28 27 27 27 27 27 27
21 22 22 23 23 23 23 23 23 22 22 22 22 23 23 24 24 24 24 25 25 25 26 26 27 27 27 26 26 26 26 27 27 27 26 26 25 25 24 24 24 24 24 24 23 23 23 23 24 25 26 27 28 28 28 28 28 28 28 28 29 28 27 27 26 26 26 26 26
19 20 20 21 22 22 23 23 23 23 22 23 23 23 23 23 24 24 24 25 25 25 25 26 26 26 26 26 26 26 26 26 26 26 25 24 23 23 22 22 22 22 22 22 21 21 22 23 24 25 26 27 27 27 28 28 27 27 27 27 27 27 27 27 26 25 25 25 25
17 18 19 19 20 21 21 22 22 22 23 23 23 23 23 23 23 24 24 24 24 24 25 25 25 25 25 26 26 25 25 25 24 23 23 22 21 21 20 20 21 21 21 22 22 23 23 24 24 24 25 25 25 25 25 26 26 26 26 26 26 26 26 26 26 26 25 25 25
15 15 16 17 18 19 20 21 21 22 22 22 22 22 23 23 23 23 23 23 23 23 24 24 24 24 24 24 24 24 23 23 22 21 21 20 20 20 20 20 21 22 22 23 23 23 23 22 22 22 21 21 21 21 22 23 23 24 24 24 25 25 26 26 26 26 26 25 25
12 13 14 15 16 17 18 19 20 20 21 21 21 22 22 22 22 22 22 22 22 22 22 22 22 23 23 23 22 21 21 20 20 19 19 19 19 19 20 20 21 22 22 22 21 20 20 19 18 18 18 18 18 19 20 21 21 22 23 23 24 24 25 25 25 25 25 25 26
11 12 13 13 14 15 16 17 18 19 19 20 20 21 21 21 21 21 21 21 21 21 21 21 21 21 20 20 20 19 19 18 18 17 17 18 18 19 19 19 19 19 19 18 18 17 17 16 16 16 17 17 18 18 19 19 20 21 22 22 23 23 24 24 23 23 23 24 25
9 10 11 12 12 13 14 15 16 17 18 18 19 20 20 20 20 20 20 20 19 19 19 19 18 18 18 18 18 17 17 16 16 16 16 16 17 17 17 16 16 16 16 15 15 15 16 16 16 16 16 17 18 18 18 19 19 20 20 21 21 22 22 22 22 21 22 23 24
7 7 8 9 10 11 12 13 13 14 15 16 17 17 18 18 18 18 18 18 17 17 16 16 16 16 16 16 15 15 15 14 14 14 15 15 14 14 14 14 14 14 14 14 14 15 15 15 15 16 16 17 17 17 17 18 18 18 19 19 19 20 20 20 20 20 21 22 22
4 4 5 6 7 8 8 9 10 11 12 12 13 14 14 15 15 15 15 15 15 14 14 14 14 14 14 13 13 13 12 12 12 12 13 13 13 13 13 13 13 13 13 13 13 13 14 14 14 15 15 15 15 15 16 16 17 17 17 18 18 18 19 19 19 20 20 20 21
2 2 2 2 3 3 4 4 5 6 6 7 8 9 10 11 11 11 12 11 11 11 11 11 10 10 11 10 10 10 10 10 10 11 11 11 12 12 12 12 12 12 11 11 11 12 12 12 12 13 13 13 13 14 14 15 15 16 16 17 17 18 18 18 18 19 19 19 20
4 3 3 3 2 2 2 2 1 1 1 2 3 3 4 5 6 6 6 6 6 6 6 6 6 6 7 7 7 7 8 8 9 9 9 10 10 10 10 10 10 10 10 10 10 10 10 11 11 11 11 11 12 12 13 14 14 15 15 16 16 17 17 17 17 17 18 18 19
6 6 6 6 6 6 6 6 5 5 4 3 3 3 2 2 3 3 3 3 3 4 4 4 4 5 5 6 6 7 7 8 8 8 8 9 9 9 9 9 9 9 9 9 9 9 10 10 10 10 10 11 11 11 12 12 13 13 14 14 15 15 15 15 15 16 16 17 17
7 7 8 8 8 8 8 7 7 7 6 6 5 5 5 5 5 5 6 6 6 6 6 6 6 6 6 6 7 7 7 7 8 8 8 8 8 8 8 8 8 8 8 9 9 9 9 9 10 10 10 11 11 11 11 11 12 12 12 13 13 13 13 14 14 14 15 15 15
8 8 8 8 8 8 8 8 8 7 7 6 6 6 6 6 6 6 7 7 7 7 7 7 7 7 7 7 7 7 7 7 8 8 8 8 9 9 8 8 8 8 8 8 9 9 9 10 10 11 11 11 11 11 11 11 11 11 11 12 12 12 12 13 13 13 14 14 14
9 9 9 9 9 9 9 8 8 8 7 7 6 6 6 6 6 7 7 7 7 7 7 7 7 7 7 7 7 8 8 8 8 9 9 9 9 9 8 8 8 9 9 9 9 10 10 11 11 11 11 11 11 11 11 11 11 11 11 11 11 11 12 12 12 13 13 13 14
10 10 10 10 10 9 9 9 8 8 7 7 7 6 6 7 7 7 7 8 8 8 8 8 8 8 8 8 8 9 9 9 9 9 9 9 9 9 9 8 8 9 9 9 10 11 12 12 12 11 11 10 10 10 10 10 11 11 11 12 12 12 12 12 12 13 13 13 14
10 10 10 10 10 9 9 9 8 8 8 7 7 8 8 8 8 9 9 9 9 9 9 9 9 9 10 10 10 10 10 10 10 9 9 9 9 9 9 8 9 9 10 10 12 12 13 12 12 11 10 10 9 10 10 10 11 11 12 12 13 13 13 13 13 13 14 14 14
10 10 10 10 10 10 9 9 9 9 9 9 9 10 10 10 10 10 10 10 11 11 11 11 11 11 11 11 10 10 10 10 10 9 9 9 8 8 8 9 9 10 10 12 12 12 12 11 11 10 10 9 9 10 10 10 11 11 12 13 13 14 14 15 15 15 15 15 15
10 11 11 11 10 10 10 10 11 11 11 12 12 12 12 12 12 12 12 13 13 13 13 13 13 12 11 11 10 10 10 9 9 9 9 8 8 8 8 9 9 10 11 11 10 10 10 10 10 10 10 10 10 10 10 11 11 12 12 13 14 15 15 16 16 16 16 16 16
11 12 12 12 12 12 13 13 13 13 14 14 14 14 14 14 14 14 14 15 14 14 14 13 13 12 11 10 10 10 10 9 9 8 8 8 8 8 8 8 9 9 10 10 9 9 9 9 10 10 10 10 11 11 11 12 12 13 13 14 14 15 16 16 17 17 18 18 17
13 13 13 13 14 15 15 15 15 15 16 15 16 16 15 15 15 16 16 16 15 14 14 13 12 11 10 10 10 10 9 9 8 8 7 7 7 7 8 8 9 9 10 9 9 10 10 10 10 10 10 11 11 11 12 12 13 14 14 14 15 15 16 16 17 17 18 18 18
14 14 15 15 16 17 17 17 17 17 17 17 17 17 17 16 17 16 16 15 15 14 13 13 11 10 10 10 10 9 8 8 8 7 7 6 7 7 8 8 9 9 10 10 11 11 11 11 11 11 11 11 11 12 12 13 14 14 15 15 15 16 16 16 17 17 17 18 18
15 15 16 17 18 18 18 18 18 18 18 18 17 17 17 17 17 16 15 15 14 14 12 11 10 10 10 10 9 8 8 8 7 6 7 7 8 8 8 9 9 10 11 11 12 12 12 12 12 11 11 12 12 13 13 14 14 15 15 15 16 16 16 17 17 17 17 17 17
16 17 17 18 19 19 19 19 19 19 18 18 17 17 17 17 16 16 15 14 14 13 11 9 9 10 10 9 8 8 8 7 7 7 8 9 9 9 9 9 10 11 12 12 12 13 13 13 12 12 12 13 13 14 14 14 15 15 15 15 16 16 16 16 16 16 16 16 17
17 18 18 19 20 20 20 20 19 18 18 17 17 17 17 16 16 15 14 14 13 11 10 9 9 9 9 8 8 8 8 8 8 9 9 10 10 9 9 9 10 12 13 13 13 13 13 13 13 12 13 14 14 15 15 15 15 15 15 15 16 16 16 16 16 16 16 16 16
18 19 20 21 21 21 20 19 19 18 17 17 17 16 16 16 15 15 14 13 11 10 9 9 9 9 9 8 8 8 9 9 10 10 10 10 10 10 10 10 11 12 13 13 13 13 13 13 13 13 13 15 15 15 15 15 15 15 15 15 15 15 15 15 15 15 15 15 15
19 20 21 21 21 20 20 19 18 18 17 17 17 17 16 15 14 13 12 11 10 9 9 9 9 9 9 8 9 9 9 10 10 10 10 10 10 11 11 11 12 12 12 13 13 13 13 13 13 13 14 15 16 16 16 16 16 16 16 15 15 14 14 15 15 16 16 15 15
20 21 21 21 20 20 19 18 18 17 17 18 17 16 15 14 13 12 11 10 9 8 8 9 8 8 8 8 8 9 9 10 10 10 10 11 11 11 12 12 12 12 12 13 13 13 13 13 13 13 14 15 16 16 16 16 16 16 16 15 15 15 15 16 17 17 17 16 16
20 21 21 21 20 19 18 18 17 17 17 17 16 15 14 13 12 12 10 9 7 8 8 9 8 8 8 8 9 9 10 10 10 10 11 11 11 12 12 12 12 12 12 13 13 13 13 13 13 13 14 15 16 16 16 16 16 16 16 16 16 16 16 17 18 18 18 18 18
20 20 20 20 20 19 18 17 17 17 17 16 15 14 13 12 12 11 9 7 6 7 8 8 8 8 9 9 10 10 10 10 10 10 11 11 12 13 13 13 13 13 13 13 13 13 13 13 13 13 14 15 16 16 17 17 17 16 16 16 16 17 17 18 18 19 19 19 19
19 19 20 20 19 18 17 17 16 16 15 14 13 12 11 10 11 10 8 6 6 7 7 7 8 9 10 10 9 9 9 10 10 10 11 12 13 13 13 14 14 14 14 13 13 13 14 14 14 14 14 16 16 17 17 17 17 17 17 17 17 17 17 18 18 19 19 20 20
19 19 19 19 18 17 16 15 15 14 13 12 11 10 9 9 9 9 8 6 6 7 7 8 9 10 10 9 9 9 9 10 10 11 12 13 13 13 14 14 15 15 14 13 13 14 14 14 14 14 14 16 16 17 18 18 18 18 18 17 17 17 17 17 18 18 19 19 20
18 18 17 17 16 15 15 14 13 12 11 10 9 9 8 8 9 8 7 6 6 7 7 8 9 9 9 8 8 9 10 11 11 12 12 13 13 14 14 15 15 15 14 14 14 14 15 15 15 15 15 16 16 17 18 18 18 18 18 17 17 18 18 18 18 19 19 20 20
17 16 16 15 14 13 13 13 12 11 9 8 9 9 8 8 8 7 7 6 7 7 8 8 9 9 8 8 9 10 11 12 12 13 13 13 14 14 14 15 15 15 14 14 14 15 15 15 15 15 15 15 16 16 17 18 19 18 18 18 18 19 20 20 20 20 21 21 21
Wind_Direction
218 218 219 220 221 222 222 222 223 224 225 226 227 228 229 231 232 235 238 241 243 246 250 253 256 260 262 264 264 264 265 265 265 264 263 263 262 262 261 260 258 257 257 256 255 256 256 258 259 260 260 261 262 263 263 263 262 262 264 265 267 268 268 267 265 264 263 263 263
218 219 220 221 222 223 224 224 225 226 228 230 231 233 234 235 236 238 241 243 247 250 254 256 260 263 265 267 268 267 266 265 265 264 264 263 264 265 265 264 262 261 260 259 258 257 258 259 260 260 260 261 262 263 264 264 264 264 265 266 267 268 270 270 271 270 269 267 266
219 220 220 221 222 223 224 225 226 228 230 232 235 237 238 239 240 241 243 247 251 254 256 259 263 266 268 270 269 267 265 263 262 262 262 264 267 269 270 269 267 265 262 261 260 260 261 261 262 261 261 262 263 264 265 265 265 265 265 265 265 266 267 268 270 272 272 271 268
220 220 220 221 223 224 226 228 229 231 233 235 237 239 240 242 243 245 247 250 252 255 258 262 266 269 270 269 267 264 262 261 260 261 264 268 270 272 272 271 269 266 264 262 262 263 264 264 263 263 263 264 264 265 265 266 266 267 267 267 267 266 266 266 268 270 272 272 271
222 222 222 223 225 227 229 231 233 234 236 238 238 239 241 243 244 246 248 250 253 257 262 266 268 269 267 265 262 260 260 260 262 265 268 271 273 274 274 273 270 268 266 265 264 265 265 265 264 264 265 266 267 268 268 269 269 269 269 269 268 267 266 266 268 269 270 271 271
224 224 225 226 227 229 232 234 236 237 239 239 239 240 241 244 246 247 249 251 256 262 266 267 266 264 261 259 259 261 262 264 267 269 271 273 275 276 275 274 272 270 268 268 268 268 268 267 267 268 269 270 271 272 271 271 270 270 270 269 268 267 266 266 267 268 268 268 270
227 227 227 228 229 230 232 235 237 239 239 240 240 242 244 247 249 251 254 257 261 264 265 263 261 258 257 259 262 265 268 269 271 271 272 274 276 276 274 273 271 270 270 270 271 271 271 272 272 272 272 273 273 273 272 271 271 270 270 270 270 270 268 267 267 267 267 268 270
230 230 230 231 232 232 234 236 237 238 239 240 242 245 248 251 253 255 258 260 261 261 261 260 259 259 261 264 267 269 270 271 271 272 274 275 275 274 272 271 270 270 271 272 273 273 273 273 273 273 274 274 275 275 275 275 275 274 274 273 274 273 272 270 268 267 267 269 271
231 232 232 233 234 235 236 237 239 239 240 242 246 249 252 253 255 257 258 258 259 260 259 259 261 264 266 268 270 270 271 270 271 273 274 275 274 272 271 270 270 271 272 272 273 273 274 276 277 279 280 280 280 281 281 281 281 280 279 277 276 275 274 272 270 269 269 270 272
231 232 233 234 235 237 238 239 240 242 243 246 249 253 255 256 257 257 257 258 258 258 259 261 264 266 268 269 270 271 271 272 273 275 276 275 274 272 271 271 271 272 274 275 277 279 281 284 286 288 289 289 288 287 287 287 286 285 283 282 280 278 277 277 276 274 273 273 273
233 234 235 235 236 238 239 240 241 243 245 247 251 254 256 257 257 257 257 257 257 257 260 264 266 267 269 271 272 273 274 275 277 277 276 275 274 274 274 275 278 280 282 284 286 287 290 291 292 293 294 294 293 292 292 292 291 290 288 288 286 284 283 283 283 281 278 277 275
234 235 236 237 238 239 240 241 242 244 246 248 251 253 255 256 257 257 257 257 258 261 264 267 269 270 271 273 275 276 278 279 279 279 278 277 278 280 283 286 289 291 292 293 293 294 295 295 296 297 298 299 299 299 298 298 297 296 295 295 294 291 290 290 289 287 283 280 277
234 236 237 238 239 240 241 242 244 245 246 248 250 252 254 255 257 257 257 259 262 266 269 270 272 273 274 276 278 279 280 281 282 282 283 285 289 293 296 298 300 300 299 299 298 297 298 300 302 303 304 305 306 306 306 305 303 302 302 302 300 298 297 296 294 290 286 282 278
235 237 239 240 241 242 243 245 246 247 248 249 251 253 255 256 258 259 261 264 267 270 272 273 275 276 278 279 281 283 284 286 288 290 294 299 304 307 308 308 308 306 305 304 302 300 300 302 305 308 309 311 311 312 311 310 308 307 306 305 303 302 302 301 298 293 286 281 279
232 236 239 241 243 245 247 249 250 251 253 254 255 257 259 261 262 264 267 269 271 273 275 277 278 280 282 283 286 289 292 295 299 303 307 313 316 317 317 316 314 312 310 309 307 305 305 305 307 310 312 314 316 316 315 314 312 311 310 308 306 305 304 303 299 293 287 283 282
216 226 233 239 244 248 252 255 257 259 261 262 264 266 267 268 269 271 272 273 275 277 278 280 283 285 287 290 294 298 304 309 314 318 321 323 324 324 323 321 318 316 315 315 315 314 313 313 313 314 316 319 321 321 320 318 317 316 314 313 310 308 306 303 299 293 289 287 287
153 179 203 225 241 253 261 267 270 272 274 275 276 276 276 277 277 278 279 280 282 283 285 288 292 295 297 300 306 312 317 323 328 332 333 334 333 331 329 327 326 325 325 326 328 328 327 325 323 323 325 327 328 328 326 324 322 320 318 316 313 311 309 306 302 298 295 294 294
105 105 103 100 94 87 77 67 51 15 337 314 301 295 293 293 292 293 295 297 299 302 304 308 313 317 320 323 327 332 336 339 342 345 347 347 345 343 342 341 340 341 342 344 346 346 344 341 339 337 337 338 338 337 335 332 328 325 322 319 317 316 314 312 310 307 305 304 304
96 95 94 93 92 91 90 90 89 86 83 79 71 61 47 35 26 18 14 12 11 10 9 8 9 8 6 4 2 1 1 1 2 3 4 3 2 1 360 359 358 359 0 2 2 2 0 358 355 354 353 353 352 349 346 341 337 334 331 329 327 326 324 323 321 320 318 317 317
97 97 96 96 96 97 97 97 96 95 94 92 86 79 70 63 58 53 51 49 48 45 44 42 40 37 33 29 24 22 21 21 21 22 21 21 20 19 18 17 16 17 18 18 18 15 13 11 11 10 10 8 6 3 359 355 351 347 345 342 340 338 337 335 334 332 330 328 327
99 98 97 96 97 99 99 100 100 99 97 93 87 79 72 66 61 59 57 56 55 54 53 51 49 46 44 41 39 38 39 38 38 37 37 36 35 35 34 33 33 33 32 31 28 25 24 23 23 22 20 17 14 11 7 4 360 356 352 350 347 345 344 342 340 338 337 335 333
96 95 95 95 96 98 98 99 100 99 97 93 87 81 74 69 66 63 62 62 62 61 60 59 57 55 54 54 53 53 53 51 49 48 48 47 47 47 46 45 44 43 41 38 35 32 31 30 29 26 23 18 14 10 6 2 359 354 351 348 346 344 343 342 341 340 338 337 336
93 93 93 94 95 97 98 99 99 98 95 91 86 81 77 74 73 72 71 72 71 70 69 67 66 65 65 64 64 63 62 60 59 59 58 56 55 55 53 51 48 46 42 38 35 33 32 32 30 26 20 14 9 5 1 357 353 349 346 344 342 340 340 340 339 338 337 336 335
92 93 95 95 97 98 99 99 99 98 94 90 87 85 82 81 80 80 80 79 78 77 75 74 74 73 72 72 71 71 70 69 68 67 66 63 61 57 54 50 47 43 39 37 35 33 31 29 26 22 14 7 2 359 356 353 350 347 344 341 339 337 335 335 336 336 335 335 333
96 97 98 100 100 101 101 101 100 97 94 91 90 88 87 86 85 85 85 84 83 81 80 79 79 78 78 78 78 78 78 76 74 72 69 66 61 57 52 47 43 40 38 38 39 38 33 28 22 15 7 360 355 352 350 349 348 346 343 340 338 335 334 332 333 333 334 334 333
101 103 103 104 104 105 103 101 99 96 94 93 92 91 90 88 88 89 88 87 85 84 84 84 83 83 83 84 85 84 81 77 73 69 65 61 57 52 47 43 40 39 40 41 40 38 35 30 22 11 2 355 350 348 347 346 346 345 343 341 339 337 335 334 333 333 333 333 332
106 107 107 107 107 104 102 100 98 97 95 94 93 92 91 91 91 91 91 89 88 88 88 88 87 87 87 88 86 82 77 72 66 61 56 52 48 45 42 39 38 38 38 35 31 27 26 24 20 11 1 352 348 347 345 344 343 342 342 341 340 340 339 338 337 336 335 333 333
109 109 110 110 106 103 100 99 98 97 95 95 94 93 94 94 94 93 92 92 92 92 91 90 89 90 90 87 81 75 70 66 60 54 49 44 41 38 37 35 35 35 33 27 23 20 19 18 18 11 2 353 349 347 345 344 344 343 343 343 343 343 343 342 341 340 338 337 336
110 112 112 109 105 102 100 99 98 96 96 96 96 97 98 98 97 96 95 95 94 92 90 89 90 90 86 80 75 71 67 62 55 49 43 39 35 33 30 29 31 32 29 24 21 20 19 19 18 13 4 355 353 351 349 348 346 345 345 345 346 346 346 345 344 343 342 341 339
112 113 111 108 105 102 100 98 98 98 98 99 100 101 101 100 99 97 96 94 92 89 88 89 89 85 80 75 72 68 64 58 50 42 34 30 29 28 26 24 28 30 29 26 23 22 22 21 20 15 7 359 357 355 353 351 350 349 348 348 348 347 347 347 346 345 345 344 343
113 113 111 108 105 102 100 99 100 100 102 103 104 104 102 100 97 95 93 91 90 89 90 90 87 83 78 74 68 62 56 49 40 32 27 24 24 24 23 23 29 32 31 27 25 24 24 23 20 13 6 1 358 356 355 353 352 351 350 349 349 349 348 348 347 347 347 346 345
114 113 111 108 105 103 102 102 103 105 106 106 105 103 101 97 95 93 92 91 92 93 93 90 86 81 76 68 60 52 45 38 32 28 24 22 21 19 19 21 30 35 33 28 25 25 24 23 19 12 5 0 358 356 355 354 353 353 352 351 351 351 350 350 350 350 349 349 347
114 113 111 108 106 105 105 106 107 108 107 105 103 100 98 96 95 94 93 92 92 91 88 82 77 72 64 56 49 43 39 35 31 27 23 19 16 15 16 21 31 35 33 27 24 23 22 21 17 10 4 360 358 357 357 357 357 356 356 356 356 356 355 355 354 353 352 350 348
114 113 111 109 109 109 109 110 110 110 108 104 101 98 97 96 95 92 90 88 86 83 78 71 65 61 56 49 44 41 38 34 30 27 22 17 12 11 15 22 30 34 32 26 22 20 19 19 16 10 4 1 1 2 3 2 2 2 2 2 2 1 1 360 359 357 355 352 349
116 114 113 111 112 112 113 113 112 111 108 104 101 98 96 93 89 85 82 79 76 73 69 63 58 55 51 47 41 38 36 33 30 25 21 15 12 13 18 25 29 31 30 25 20 18 17 17 16 10 5 4 5 7 7 7 6 6 6 6 5 4 3 2 360 358 356 354 351
118 117 115 115 115 115 115 115 114 111 107 104 101 98 95 90 85 80 76 72 69 68 66 63 58 53 49 45 40 36 34 31 29 25 20 17 16 19 23 25 26 27 27 24 20 18 17 17 15 11 7 6 7 9 9 8 7 7 7 6 5 3 1 359 357 356 354 352 350
120 120 118 118 117 117 116 116 113 110 106 102 100 97 93 89 84 80 74 66 62 63 63 60 55 48 43 39 39 37 33 29 27 26 24 22 23 25 26 26 24 24 24 24 21 19 18 17 14 11 8 6 7 7 7 6 5 4 4 3 1 359 356 354 352 350 349 348 347
121 121 121 119 118 117 116 115 111 107 104 101 99 95 92 87 84 79 73 60 53 53 54 53 50 47 43 40 40 39 35 32 30 30 30 31 31 30 28 25 23 23 24 25 24 22 19 16 14 12 9 6 5 5 4 2 1 359 358 356 355 354 352 351 349 347 346 345 344
122 122 121 119 118 117 115 111 106 103 101 100 98 95 90 84 80 75 68 56 48 46 49 51 54 53 50 45 43 43 42 40 38 37 38 40 38 33 29 25 23 23 25 28 27 23 19 16 14 12 9 5 3 2 1 358 355 353 351 351 351 352 353 354 353 351 350 348 347
121 121 119 118 117 115 112 107 103 100 99 98 96 91 85 79 76 71 64 55 51 48 50 55 59 60 56 50 48 50 52 50 49 47 46 44 40 34 29 26 26 26 29 32 30 24 18 15 13 11 8 4 2 1 359 356 352 350 351 354 357 1 3 4 3 1 358 355 352
120 119 117 115 113 111 108 105 103 102 100 97 91 86 81 78 75 71 65 59 55 52 54 59 64 65 62 57 55 57 60 60 56 53 50 44 39 34 31 30 30 31 33 35 31 24 18 15 12 10 7 4 2 2 360 357 355 356 0 6 11 12 11 10 8 6 3 359 356